Atmospheric History
02/08/2018 18:29  to  2/9/2018 18:29
Change End Date:
To complete the export process:
1) Select all of the data below
2) Copy the data to the clipboard
3) Open a word processor such as Notepad
4) Paste the data into the word processor
5) Save the file

Date/Time (MDT), AirTemp, RH, Dewpoint ,AvgWindSpeed, GustWindSpeed, WindDirection, PrecipType, PrecipIntensity, PrecipAccumulation, PrecipRate
02/09/2018 18:22, -8, 89, -10 ,3, 6, NW, None, None, ,  
02/09/2018 18:20, -7, 89, -10 ,4, 6, NW, None, None, ,  
02/09/2018 18:12, -7, 89, -10 ,4, 7, NW, None, None, ,  
02/09/2018 18:05, -8, 89, -10 ,4, 6, NW, None, None, ,  
02/09/2018 18:02, -8, 89, -10 ,4, 6, NW, None, None, ,  
02/09/2018 17:52, -7, 89, -9 ,4, 7, NW, None, None, ,  
02/09/2018 17:42, -7, 89, -10 ,4, 6, NW, None, None, ,  
02/09/2018 17:35, -7, 89, -10 ,4, 6, NW, None, None, ,  
02/09/2018 17:32, -7, 89, -10 ,4, 6, NW, None, None, ,  
02/09/2018 17:22, -7, 89, -9 ,4, 7, NW, None, None, ,  
02/09/2018 17:20, -7, 89, -9 ,4, 7, NW, None, None, ,  
02/09/2018 17:12, -6, 89, -9 ,4, 7, NW, None, None, ,  
02/09/2018 17:02, -6, 89, -9 ,4, 8, NW, None, None, ,  
02/09/2018 16:52, -6, 89, -8 ,6, 9, W, None, None, ,  
02/09/2018 16:42, -5, 89, -8 ,6, 9, W, None, None, ,  
02/09/2018 16:32, -5, 89, -8 ,6, 9, NW, None, None, ,  
02/09/2018 16:22, -5, 89, -7 ,5, 12, NW, None, None, ,  
02/09/2018 16:20, -5, 89, -7 ,6, 12, W, None, None, ,  
02/09/2018 16:12, -5, 88, -8 ,6, 9, NW, None, None, ,  
02/09/2018 16:02, -5, 88, -7 ,5, 9, NW, None, None, ,  
02/09/2018 15:52, -5, 88, -7 ,4, 8, W, None, None, ,  
02/09/2018 15:42, -5, 88, -7 ,4, 9, NW, None, None, ,  
02/09/2018 15:35, -4, 88, -7 ,6, 11, W, None, None, ,  
02/09/2018 15:32, -4, 88, -7 ,5, 12, NW, None, None, ,  
02/09/2018 15:22, -4, 88, -7 ,9, 11, NW, None, None, ,  
02/09/2018 15:12, -4, 87, -7 ,7, 11, NW, None, None, ,  
02/09/2018 15:05, -4, 87, -7 ,7, 12, W, None, None, ,  
02/09/2018 15:02, -4, 87, -7 ,8, 12, NW, None, None, ,  
02/09/2018 14:52, -3, 87, -6 ,6, 11, NW, None, None, ,  
02/09/2018 14:42, -3, 87, -6 ,7, 11, NW, None, None, ,  
02/09/2018 14:32, -3, 87, -5 ,6, 11, NW, None, None, ,  
02/09/2018 14:21, -3, 87, -6 ,6, 12, W, None, None, ,  
02/09/2018 14:20, -3, 87, -6 ,7, 12, W, None, None, ,  
02/09/2018 14:11, -3, 87, -6 ,8, 12, W, None, None, ,  
02/09/2018 14:01, -2, 87, -5 ,6, 11, NW, None, None, ,  
02/09/2018 13:51, -3, 87, -6 ,9, 13, W, None, None, ,  
02/09/2018 13:50, -3, 87, -6 ,7, 13, NW, None, None, ,  
02/09/2018 13:41, -3, 87, -5 ,8, 13, W, None, None, ,  
02/09/2018 13:35, -3, 87, -6 ,9, 13, W, None, None, ,  
02/09/2018 13:31, -3, 87, -6 ,7, 12, W, None, None, ,  
02/09/2018 13:21, -2, 87, -5 ,7, 10, NW, None, None, ,  
02/09/2018 13:20, -2, 87, -5 ,5, 11, NW, None, None, ,  
02/09/2018 13:11, -2, 87, -5 ,6, 11, W, None, None, ,  
02/09/2018 13:05, -2, 87, -5 ,6, 11, W, None, None, ,  
02/09/2018 13:01, -2, 87, -5 ,8, 11, W, None, None, ,  
02/09/2018 12:51, -2, 87, -5 ,7, 11, W, None, None, ,  
02/09/2018 12:50, -2, 87, -5 ,7, 10, W, None, None, ,  
02/09/2018 12:41, -2, 87, -5 ,7, 11, NW, None, None, ,  
02/09/2018 12:35, -2, 87, -5 ,7, 11, NW, None, None, ,  
02/09/2018 12:31, -2, 87, -5 ,7, 11, NW, None, None, ,  
02/09/2018 12:21, -2, 87, -5 ,6, 11, W, None, None, ,  
02/09/2018 12:20, -2, 87, -5 ,6, 11, NW, None, None, ,  
02/09/2018 12:11, -3, 87, -6 ,7, 11, W, None, None, ,  
02/09/2018 12:06, -3, 87, -6 ,7, 11, NW, None, None, ,  
02/09/2018 12:01, -3, 87, -6 ,7, 10, W, None, None, ,  
02/09/2018 11:51, -3, 87, -6 ,7, 11, W, None, None, ,  
02/09/2018 11:41, -3, 87, -6 ,7, 11, W, None, None, ,  
02/09/2018 11:35, -3, 87, -6 ,7, 10, NW, None, None, ,  
02/09/2018 11:31, -3, 87, -6 ,7, 10, W, None, None, ,  
02/09/2018 11:21, -3, 88, -5 ,6, 10, W, None, None, ,  
02/09/2018 11:20, -3, 88, -6 ,5, 10, NW, None, None, ,  
02/09/2018 11:11, -3, 88, -6 ,6, 10, W, None, None, ,  
02/09/2018 11:05, -3, 88, -6 ,5, 11, W, None, None, ,  
02/09/2018 11:01, -3, 88, -6 ,7, 11, W, None, None, ,  
02/09/2018 10:51, -4, 88, -7 ,6, 11, NW, None, None, ,  
02/09/2018 10:50, -4, 88, -7 ,8, 11, NW, None, None, ,  
02/09/2018 10:41, -3, 88, -6 ,7, 11, W, None, None, ,  
02/09/2018 10:35, -3, 88, -6 ,7, 11, NW, None, None, ,  
02/09/2018 10:31, -3, 88, -6 ,7, 12, W, None, None, ,  
02/09/2018 10:21, -3, 88, -6 ,6, 10, W, None, None, ,  
02/09/2018 10:20, -3, 88, -6 ,7, 10, W, None, None, ,  
02/09/2018 10:11, -3, 88, -6 ,6, 9, NW, None, None, ,  
02/09/2018 10:05, -3, 88, -6 ,6, 9, W, None, None, ,  
02/09/2018 10:01, -4, 88, -6 ,5, 9, W, None, None, ,  
02/09/2018 09:51, -4, 89, -7 ,6, 9, W, None, None, ,  
02/09/2018 09:50, -4, 89, -7 ,6, 9, NW, None, None, ,  
02/09/2018 09:41, -4, 89, -7 ,5, 9, W, None, None, ,  
02/09/2018 09:35, -4, 89, -7 ,4, 9, W, None, None, ,  
02/09/2018 09:31, -4, 89, -7 ,6, 9, W, None, None, ,  
02/09/2018 09:21, -5, 89, -8 ,6, 8, W, None, None, ,  
02/09/2018 09:20, -5, 89, -8 ,6, 8, W, None, None, ,  
02/09/2018 09:11, -6, 89, -9 ,6, 9, NW, None, None, ,  
02/09/2018 09:05, -7, 89, -9 ,4, 7, NW, None, None, ,  
02/09/2018 09:01, -7, 89, -9 ,6, 9, NW, None, None, ,  
02/09/2018 08:51, -7, 89, -9 ,4, 9, NW, None, None, ,  
02/09/2018 08:50, -7, 89, -9 ,4, 9, NW, None, None, ,  
02/09/2018 08:41, -7, 89, -10 ,5, 9, NW, Yes, , ,  
02/09/2018 08:34, -8, 89, -10 ,6, 7, W, None, None, ,  
02/09/2018 08:31, -8, 89, -10 ,5, 7, NW, None, None, ,  
02/09/2018 08:21, -8, 89, -10 ,4, 7, NW, None, None, ,  
02/09/2018 08:19, -8, 89, -10 ,4, 7, NW, None, None, ,  
02/09/2018 08:11, -7, 89, -10 ,4, 9, W, None, None, ,  
02/09/2018 08:04, -7, 89, -10 ,6, 9, W, None, None, ,  
02/09/2018 08:00, -7, 89, -10 ,4, 9, NW, None, None, ,  
02/09/2018 07:50, -7, 89, -10 ,3, 7, NW, None, None, ,  
02/09/2018 07:49, -7, 89, -10 ,4, 7, NW, None, None, ,  
02/09/2018 07:40, -8, 89, -10 ,4, 7, W, None, None, ,  
02/09/2018 07:34, -8, 89, -10 ,4, 8, NW, None, None, ,  
02/09/2018 07:30, -8, 89, -10 ,6, 8, W, None, None, ,  
02/09/2018 07:20, -7, 89, -10 ,4, 9, NW, None, None, ,  
02/09/2018 07:19, -7, 89, -10 ,4, 9, NW, None, None, ,  
02/09/2018 07:10, -7, 89, -9 ,6, 9, W, None, None, ,  
02/09/2018 07:04, -7, 89, -9 ,4, 9, NW, Yes, , ,  
02/09/2018 07:00, -7, 89, -9 ,4, 9, W, Yes, , ,  
02/09/2018 06:50, -7, 89, -9 ,5, 9, NW, Yes, , ,  
02/09/2018 06:50, -7, 89, -9 ,6, 9, NW, None, None, ,  
02/09/2018 06:40, -6, 89, -9 ,6, 9, NW, Yes, , ,  
02/09/2018 06:35, -6, 89, -9 ,5, 9, W, Yes, , ,  
02/09/2018 06:30, -6, 89, -9 ,4, 9, NW, Yes, , ,  
02/09/2018 06:20, -6, 89, -8 ,5, 9, W, Yes, , ,  
02/09/2018 06:20, -6, 89, -8 ,5, 9, W, None, None, ,  
02/09/2018 06:10, -6, 89, -8 ,6, 10, NW, Yes, , ,  
02/09/2018 06:05, -6, 89, -8 ,6, 10, W, Yes, , ,  
02/09/2018 06:00, -6, 89, -8 ,6, 10, NW, Yes, , ,  
02/09/2018 05:50, -6, 89, -8 ,6, 9, NW, Yes, , ,  
02/09/2018 05:50, -6, 89, -8 ,6, 9, W, Yes, , ,  
02/09/2018 05:40, -5, 89, -8 ,4, 7, W, Yes, , ,  
02/09/2018 05:35, -5, 89, -8 ,3, 7, NW, None, None, ,  
02/09/2018 05:30, -5, 89, -8 ,3, 6, NW, Yes, , ,  
02/09/2018 05:20, -5, 89, -7 ,4, 7, W, Yes, , ,  
02/09/2018 05:20, -5, 89, -7 ,4, 7, W, Yes, , ,  
02/09/2018 05:10, -5, 89, -7 ,2, 6, NW, Yes, , ,  
02/09/2018 05:05, -5, 89, -7 ,2, 7, NW, Yes, , ,  
02/09/2018 05:00, -5, 89, -7 ,4, 7, NW, None, None, ,  
02/09/2018 04:50, -4, 89, -7 ,3, 5, W, Yes, , ,  
02/09/2018 04:50, -4, 89, -7 ,2, 5, W, Yes, , ,  
02/09/2018 04:40, -4, 90, -6 ,1, 2, NW, Yes, , ,  
02/09/2018 04:35, -4, 90, -6 ,0, 2, W, Yes, , ,  
02/09/2018 04:30, -4, 90, -6 ,1, 2, W, Yes, , ,  
02/09/2018 04:20, -4, 90, -6 ,0, 1, W, Yes, , ,  
02/09/2018 04:10, -4, 90, -6 ,0, 2, SE, Yes, , ,  
02/09/2018 04:00, -4, 90, -6 ,0, 0, NW, Yes, , ,  
02/09/2018 03:50, -4, 90, -6 ,0, 1, NW, Yes, , ,  
02/09/2018 03:50, -4, 90, -6 ,0, 1, NW, Yes, , ,  
02/09/2018 03:40, -4, 90, -6 ,0, 1, SE, Yes, , ,  
02/09/2018 03:35, -4, 90, -6 ,0, 1, SE, Yes, , ,  
02/09/2018 03:30, -4, 90, -6 ,0, 1, SE, Yes, , ,  
02/09/2018 03:20, -4, 90, -6 ,1, 2, E, Yes, , ,  
02/09/2018 03:20, -4, 90, -6 ,1, 2, E, Yes, , ,  
02/09/2018 03:09, -3, 90, -5 ,1, 3, E, Yes, , ,  
02/09/2018 02:59, -3, 90, -5 ,1, 3, SE, Yes, , ,  
02/09/2018 02:50, -3, 90, -5 ,2, 4, SE, Yes, , ,  
02/09/2018 02:49, -3, 90, -5 ,2, 4, SE, Yes, , ,  
02/09/2018 02:39, -3, 90, -5 ,3, 6, SE, Yes, , ,  
02/09/2018 02:35, -3, 90, -5 ,4, 6, SE, Yes, , ,  
02/09/2018 02:29, -3, 90, -5 ,4, 4, SE, Yes, , ,  
02/09/2018 02:20, -2, 90, -4 ,2, 4, SE, Yes, , ,  
02/09/2018 02:19, -2, 90, -4 ,2, 4, SE, Yes, , ,  
02/09/2018 02:09, -2, 90, -4 ,1, 2, E, Yes, , ,  
02/09/2018 02:05, -2, 90, -4 ,0, 1, E, Yes, , ,  
02/09/2018 01:59, -2, 90, -5 ,0, 1, SE, Yes, , ,  
02/09/2018 01:49, -2, 90, -5 ,0, 0, NW, Yes, , ,  
02/09/2018 01:39, -2, 90, -5 ,0, 2, NW, Yes, , ,  
02/09/2018 01:35, -2, 90, -4 ,1, 3, NW, Yes, , ,  
02/09/2018 01:29, -2, 90, -4 ,1, 3, W, Yes, , ,  
02/09/2018 01:20, -2, 90, -4 ,2, 4, NW, Yes, , ,  
02/09/2018 01:19, -2, 90, -4 ,2, 4, NW, Yes, , ,  
02/09/2018 01:09, -2, 90, -4 ,2, 2, W, Yes, , ,  
02/09/2018 01:05, -2, 90, -4 ,1, 3, NW, Yes, , ,  
02/09/2018 00:59, -2, 90, -5 ,2, 3, W, Yes, , ,  
02/09/2018 00:50, -2, 90, -5 ,2, 3, NW, Yes, , ,  
02/09/2018 00:49, -2, 90, -5 ,1, 3, NW, Yes, , ,  
02/09/2018 00:39, -2, 90, -4 ,2, 4, NW, Yes, , ,  
02/09/2018 00:35, -2, 90, -4 ,3, 4, NW, Yes, , ,  
02/09/2018 00:29, -2, 90, -4 ,3, 4, W, Yes, , ,  
02/09/2018 00:19, -2, 90, -4 ,2, 5, NW, Yes, , ,  
02/09/2018 00:09, -2, 90, -4 ,3, 5, NW, None, None, ,  
02/09/2018 00:05, -2, 90, -4 ,2, 5, NW, Yes, , ,  
02/08/2018 23:59, -2, 90, -4 ,2, 4, NW, Yes, , ,  
02/08/2018 23:50, -2, 90, -4 ,2, 4, NW, Yes, , ,  
02/08/2018 23:49, -2, 90, -4 ,2, 4, NW, Yes, , ,  
02/08/2018 23:39, -2, 90, -4 ,2, 4, NW, Yes, , ,  
02/08/2018 23:29, -2, 90, -4 ,2, 4, W, Yes, , ,  
02/08/2018 23:20, -2, 90, -4 ,2, 4, NW, Yes, , ,  
02/08/2018 23:19, -2, 90, -4 ,2, 3, W, Yes, , ,  
02/08/2018 23:09, -1, 90, -3 ,1, 2, W, Yes, , ,  
02/08/2018 23:05, -1, 90, -3 ,1, 4, SW, Yes, , ,  
02/08/2018 22:59, -1, 90, -4 ,2, 4, NW, Yes, , ,  
02/08/2018 22:50, -1, 90, -3 ,2, 6, NW, Yes, , ,  
02/08/2018 22:49, -1, 90, -3 ,3, 6, NW, Yes, , ,  
02/08/2018 22:39, -1, 90, -3 ,3, 5, NW, Yes, , ,  
02/08/2018 22:29, -1, 90, -3 ,2, 5, NW, Yes, , ,  
02/08/2018 22:20, -1, 90, -3 ,1, 4, W, Yes, , ,  
02/08/2018 22:19, -1, 90, -3 ,1, 4, W, Yes, , ,  
02/08/2018 22:09, -1, 90, -3 ,2, 5, NW, Yes, , ,  
02/08/2018 22:05, -1, 90, -3 ,3, 4, W, Yes, , ,  
02/08/2018 21:59, -1, 90, -3 ,3, 6, NW, Yes, , ,  
02/08/2018 21:50, -1, 90, -3 ,3, 7, NW, Yes, , ,  
02/08/2018 21:49, -1, 90, -3 ,4, 7, W, Yes, , ,  
02/08/2018 21:39, -1, 90, -3 ,4, 6, NW, Yes, , ,  
02/08/2018 21:35, -1, 90, -3 ,4, 6, NW, Yes, , ,  
02/08/2018 21:28, -1, 90, -3 ,4, 7, W, Yes, , ,  
02/08/2018 21:20, 0, 90, -3 ,4, 6, W, Yes, , ,  
02/08/2018 21:18, 0, 90, -3 ,3, 6, NW, Yes, , ,  
02/08/2018 21:08, 0, 90, -2 ,3, 6, W, Yes, , ,  
02/08/2018 21:05, 0, 90, -2 ,4, 6, W, Yes, , ,  
02/08/2018 20:58, 0, 90, -2 ,3, 6, W, Yes, , ,  
02/08/2018 20:50, 0, 90, -2 ,3, 6, NW, Yes, , ,  
02/08/2018 20:48, 0, 90, -2 ,4, 6, NW, Yes, , ,  
02/08/2018 20:38, 0, 90, -2 ,3, 7, W, Yes, , ,  
02/08/2018 20:35, 0, 90, -2 ,4, 8, W, Yes, , ,  
02/08/2018 20:28, 0, 90, -2 ,4, 8, W, Yes, , ,  
02/08/2018 20:18, 0, 90, -2 ,4, 8, W, Yes, , ,  
02/08/2018 20:08, 1, 90, -1 ,3, 6, NW, Yes, , ,  
02/08/2018 20:05, 1, 89, -1 ,2, 4, W, Yes, , ,  
02/08/2018 19:58, 1, 89, -1 ,2, 4, W, Yes, , ,  
02/08/2018 19:50, 1, 89, -1 ,2, 4, W, Yes, , ,  
02/08/2018 19:48, 1, 89, -1 ,2, 4, W, Yes, , ,  
02/08/2018 19:38, 1, 89, -1 ,3, 5, NW, Yes, , ,  
02/08/2018 19:28, 1, 88, -1 ,3, 6, NW, Yes, , ,  
02/08/2018 19:18, 1, 88, -1 ,3, 5, NW, Yes, , ,  
02/08/2018 19:08, 1, 88, -1 ,4, 7, W, None, None, ,  
02/08/2018 19:05, 1, 88, -1 ,4, 7, W, Yes, , ,  
02/08/2018 18:58, 1, 89, -1 ,4, 6, W, Yes, , ,  
02/08/2018 18:50, 1, 89, -1 ,4, 6, W, Yes, , ,  
02/08/2018 18:48, 1, 89, -1 ,4, 6, W, Yes, , ,  
02/08/2018 18:38, 2, 89, -1 ,4, 6, W, Yes, , ,  
02/08/2018 18:35, 2, 89, -1 ,4, 6, W, Yes, , ,  
Change End Date:

Copyright © 1998-2015 Vaisala, Inc.
All Rights Reserved
Send comments about the data to:
SCAN Web ® is a registered trademark of Vaisala, Inc.
SCAN Web Version 6.0